Hourly Weather Roundup
Issued by NWS Central Illinois

Home | Current Version | Previous Version | Text Only | Print | Product List | Glossary On
Versions: 1 2 3 4 5 6 7 8 9 10 11 12 13 14 15 16 17 18 19 20 21 22 23 24 25 26 27 28 29 30 31 32 33 34 35 36 37 38 39 40 41 42 43 44 45 46 47 48 49 50
000
NZUS43 KILX 301210
HWRILX

AREA WEATHER ROUNDUP
NATIONAL WEATHER SERVICE, LINCOLN IL
700 AM CDT SAT APR 30 2016


CITY           SKY/WX    TMP DP  RH WIND       PRES   REMARKS
BLOOMINGTON    LGT RAIN  48  48 100 E13       29.97R VSB 1
6HR MIN TEMP:  45; 6HR MAX TEMP:  48; 6HR PCP:  0.06;

CHAMPAIGN      HVY RAIN  51  49  92 E14       29.96R FOG
6HR MIN TEMP:  49; 6HR MAX TEMP:  51; 6HR PCP:  0.15;

DANVILLE       LGT RAIN  50  48  93 E10       29.95S
6HR MIN TEMP:  48; 6HR MAX TEMP:  51; 6HR PCP:  0.02;

DECATUR        LGT RAIN  53  50  89 E15       29.92F FOG
6HR MIN TEMP:  50; 6HR MAX TEMP:  53; 6HR PCP:  0.34;

EFFINGHAM      RAIN      56  56 100 E7        29.94R
FLORA          RAIN      59  57  95 E3        29.93R
6HR MIN TEMP:  58; 6HR MAX TEMP:  62; 6HR PCP:  0.15;

GALESBURG      LGT RAIN  46  45  96 E12G21    29.91S
JACKSONVILLE   LGT RAIN  53  51  94 E16       29.85F
6HR MIN TEMP:  51; 6HR MAX TEMP:  53; 6HR PCP:  0.17;

LACON          CLOUDY    47  44  91 E12G20    29.95F FOG
6HR MIN TEMP:  44; 6HR MAX TEMP:  47;

LAWRENCEVILLE  LGT RAIN  58  55  90 NE5       29.95R FOG
6HR MIN TEMP:  58; 6HR MAX TEMP:  61; 6HR PCP:  0.03;

LITCHFIELD     LGT RAIN  55  53  94 E17       29.85F
$$


CITY           SKY/WX    TMP DP  RH WIND       PRES   REMARKS
LINCOLN        RAIN      51  51  99 E9        29.92F
6HR MIN TEMP:  49; 6HR MAX TEMP:  51; 6HR PCP:  0.17;

MACOMB         LGT RAIN  47  47  99 E20       29.89F
MATTOON        LGT RAIN  54  52  93 E8        29.93R FOG
6HR MIN TEMP:  53; 6HR MAX TEMP:  55; 6HR PCP:  0.32;

MT CARMEL AP   NOT AVBL
OLNEY-NOBLE AP LGT RAIN  55  55 100 E9        29.93R
PARIS          RAIN      52  51  97 E9        29.97S
6HR MIN TEMP:  52; 6HR MAX TEMP:  54; 6HR PCP:  0.24;

PEORIA         LGT RAIN  48  45  89 E13       29.94S FOG
6HR MIN TEMP:  47; 6HR MAX TEMP:  48; 6HR PCP:  0.02;

PONTIAC        LGT RAIN  49  47  94 E21       29.98F
RANTOUL        LGT RAIN  52  50  94 E10       29.97R
6HR MIN TEMP:  48; 6HR MAX TEMP:  52;

ROBINSON       LGT RAIN  55  54  96 E7        29.96R
6HR MIN TEMP:  55; 6HR MAX TEMP:  58; 6HR PCP:  0.03;

SPRINGFIELD    LGT RAIN  54  52  93 E14       29.88F FOG
6HR MIN TEMP:  51; 6HR MAX TEMP:  54; 6HR PCP:  0.19;

TAYLORVILLE    LGT RAIN  54  54 100 E17G23    29.88F
$$

...REGIONAL REPORTS...


CITY           SKY/WX    TMP DP  RH WIND       PRES   REMARKS
CHICAGO O`HARE CLOUDY    46  42  86 E9        30.07R FOG
KANKAKEE       CLOUDY    48  44  87 E14       30.02F FOG
MOLINE         CLOUDY    46  42  86 E14       29.94F FOG
MOUNT STERLING LGT RAIN  48  48  98 E18G25    29.82F
MOUNT VERNON   CLOUDY    57  54  88 E5        29.91S
PITTSFIELD     LGT RAIN  53  52  98 E9        29.83S
QUINCY         LGT RAIN  50  48  93 E15G24    29.78F FOG
ROCKFORD       CLOUDY    45  39  79 E12       30.06S
$$


CITY           SKY/WX    TMP DP  RH WIND       PRES   REMARKS
BURLINGTON     CLOUDY    47  47 100 E15G23    29.86F FOG
CEDAR RAPIDS   CLOUDY    44  43  96 E22G28    29.89F FOG
DES MOINES     LGT RAIN  46  42  86 E20G28    29.80F FOG
KIRKSVILLE     CLOUDY    50  48  93 E15G22    29.75F FOG
OTTUMWA        CLOUDY    45  44  97 E21G31    29.81F FOG
ST LOUIS       LGT RAIN  59  56  89 E16       29.80F FOG
$$


CITY           SKY/WX    TMP DP  RH WIND       PRES   REMARKS
TERRE HAUTE    LGT RAIN  53  51  93 E8        29.96R FOG
EVANSVILLE     LGT RAIN  58  55  90 E3        29.93R
INDIANAPOLIS   LGT RAIN  52  47  83 E14       29.99S
LAFAYETTE      LGT RAIN  50  46  86 E14       30.01F
MADISON        CLOUDY    42  33  70 E10       30.07F
MILWAUKEE      CLOUDY    43  39  86 E12       30.10S
$$






USA.gov is the U.S. government's official web portal to all federal, state and local government web resources and services.